Time,TemperatureF,DewpointF,PressureIn,WindDirection,WindDirectionDegrees,WindSpeedMPH,WindSpeedGustMPH,Humidity,HourlyPrecipIn,Conditions,Clouds,dailyrainin,SoftwareType,DateUTC
2013-01-10 00:05:00,36.6,36.1,30.50,WSW,251,0.0,0.0,98,0.00,,,0.00,Wunderground v.1.15,2013-01-10 05:05:00,
2013-01-10 00:10:00,36.6,36.1,30.50,WSW,251,0.0,0.0,98,0.00,,,0.00,Wunderground v.1.15,2013-01-10 05:10:00,
2013-01-10 00:20:00,36.3,35.8,30.50,WSW,251,0.0,0.0,98,0.00,,,0.00,Wunderground v.1.15,2013-01-10 05:20:00,
2013-01-10 00:25:00,36.3,35.8,30.50,WSW,251,0.0,0.0,98,0.00,,,0.00,Wunderground v.1.15,2013-01-10 05:25:00,
2013-01-10 00:30:00,36.2,35.7,30.50,WSW,251,0.0,0.0,98,0.00,,,0.00,Wunderground v.1.15,2013-01-10 05:30:00,
2013-01-10 00:35:00,36.0,35.5,30.50,WSW,251,0.0,0.0,98,0.00,,,0.00,Wunderground v.1.15,2013-01-10 05:35:00,
2013-01-10 00:45:00,35.8,35.3,30.51,WSW,251,0.0,0.0,98,0.00,,,0.00,Wunderground v.1.15,2013-01-10 05:45:00,
2013-01-10 00:50:00,35.8,35.3,30.51,WSW,251,0.0,0.0,98,0.00,,,0.00,Wunderground v.1.15,2013-01-10 05:50:00,
2013-01-10 01:00:00,35.6,35.1,30.51,WSW,251,0.0,0.0,98,0.00,,,0.00,Wunderground v.1.15,2013-01-10 06:00:00,
2013-01-10 01:10:00,35.5,35.0,30.51,WSW,251,0.0,0.0,98,0.00,,,0.00,Wunderground v.1.15,2013-01-10 06:10:00,
2013-01-10 01:20:00,35.6,35.1,30.51,WSW,251,0.0,0.0,98,0.00,,,0.00,Wunderground v.1.15,2013-01-10 06:20:00,
2013-01-10 01:30:00,35.6,35.1,30.51,WSW,251,0.0,0.0,98,0.00,,,0.00,Wunderground v.1.15,2013-01-10 06:30:00,
2013-01-10 01:35:00,35.6,35.1,30.51,WSW,251,0.0,0.0,98,0.00,,,0.00,Wunderground v.1.15,2013-01-10 06:35:00,
2013-01-10 01:45:00,35.8,35.3,30.51,WSW,251,0.0,0.0,98,0.00,,,0.00,Wunderground v.1.15,2013-01-10 06:45:00,
2013-01-10 01:50:00,35.8,35.3,30.51,WSW,251,0.0,0.0,98,0.00,,,0.00,Wunderground v.1.15,2013-01-10 06:50:00,
2013-01-10 02:00:00,35.9,35.6,30.51,WSW,251,0.0,0.0,99,0.00,,,0.00,Wunderground v.1.15,2013-01-10 07:00:00,
2013-01-10 02:10:00,36.2,35.9,30.51,WSW,251,0.0,0.0,99,0.00,,,0.00,Wunderground v.1.15,2013-01-10 07:10:00,
2013-01-10 02:15:00,36.3,36.0,30.50,WSW,251,0.0,0.0,99,0.00,,,0.00,Wunderground v.1.15,2013-01-10 07:15:00,
2013-01-10 02:25:00,36.5,36.2,30.50,WSW,251,0.0,0.0,99,0.00,,,0.00,Wunderground v.1.15,2013-01-10 07:25:00,
2013-01-10 02:30:00,36.5,36.2,30.50,WSW,251,0.0,0.0,99,0.00,,,0.00,Wunderground v.1.15,2013-01-10 07:30:00,
2013-01-10 02:40:00,36.6,36.3,30.50,WSW,251,0.0,0.0,99,0.00,,,0.00,Wunderground v.1.15,2013-01-10 07:40:00,
2013-01-10 02:50:00,36.5,36.2,30.50,WSW,251,0.0,0.0,99,0.00,,,0.00,Wunderground v.1.15,2013-01-10 07:50:00,
2013-01-10 03:00:00,36.3,35.8,30.50,WSW,251,0.0,0.0,98,0.00,,,0.00,Wunderground v.1.15,2013-01-10 08:00:00,
2013-01-10 03:05:00,36.2,35.7,30.50,WSW,251,0.0,0.0,98,0.00,,,0.00,Wunderground v.1.15,2013-01-10 08:05:00,
2013-01-10 03:10:00,35.9,35.4,30.50,WSW,251,0.0,0.0,98,0.00,,,0.00,Wunderground v.1.15,2013-01-10 08:10:00,
2013-01-10 03:20:00,35.6,35.1,30.50,WSW,251,0.0,0.0,98,0.00,,,0.00,Wunderground v.1.15,2013-01-10 08:20:00,
2013-01-10 03:30:00,35.3,34.8,30.50,WSW,251,0.0,0.0,98,0.00,,,0.00,Wunderground v.1.15,2013-01-10 08:30:00,
2013-01-10 03:35:00,35.2,34.7,30.50,WSW,251,0.0,0.0,98,0.00,,,0.00,Wunderground v.1.15,2013-01-10 08:35:00,
2013-01-10 03:45:00,34.9,34.4,30.49,WSW,251,0.0,0.0,98,0.00,,,0.00,Wunderground v.1.15,2013-01-10 08:45:00,
2013-01-10 03:55:00,34.7,34.2,30.49,WSW,251,0.0,0.0,98,0.00,,,0.00,Wunderground v.1.15,2013-01-10 08:55:00,
2013-01-10 04:00:00,34.6,34.1,30.48,WSW,251,0.0,0.0,98,0.00,,,0.00,Wunderground v.1.15,2013-01-10 09:00:00,
2013-01-10 04:10:00,34.3,33.8,30.48,WSW,251,0.0,0.0,98,0.00,,,0.00,Wunderground v.1.15,2013-01-10 09:10:00,
2013-01-10 04:20:00,34.0,33.7,30.49,WSW,251,0.0,0.0,99,0.00,,,0.00,Wunderground v.1.15,2013-01-10 09:20:00,
2013-01-10 04:30:00,33.7,33.4,30.48,WSW,251,0.0,0.0,99,0.00,,,0.00,Wunderground v.1.15,2013-01-10 09:30:00,
2013-01-10 04:35:00,33.7,33.4,30.48,WSW,251,0.0,0.0,99,0.00,,,0.00,Wunderground v.1.15,2013-01-10 09:35:00,
2013-01-10 04:45:00,33.4,33.1,30.49,WSW,251,0.0,0.0,99,0.00,,,0.00,Wunderground v.1.15,2013-01-10 09:45:00,
2013-01-10 04:50:00,33.4,33.1,30.49,WSW,251,0.0,0.0,99,0.00,,,0.00,Wunderground v.1.15,2013-01-10 09:50:00,
2013-01-10 05:00:00,33.1,32.9,30.48,WSW,251,0.0,0.0,99,0.00,,,0.01,Wunderground v.1.15,2013-01-10 10:00:00,
2013-01-10 05:10:00,32.8,32.6,30.48,WSW,251,0.0,0.0,99,0.00,,,0.01,Wunderground v.1.15,2013-01-10 10:10:00,
2013-01-10 05:20:00,32.4,32.2,30.49,WSW,251,0.0,0.0,99,0.00,,,0.01,Wunderground v.1.15,2013-01-10 10:20:00,
2013-01-10 05:25:00,32.1,31.6,30.49,WSW,251,0.0,0.0,98,0.00,,,0.01,Wunderground v.1.15,2013-01-10 10:25:00,
2013-01-10 05:30:00,31.8,31.3,30.50,WSW,251,0.0,0.0,98,0.00,,,0.01,Wunderground v.1.15,2013-01-10 10:30:00,
2013-01-10 05:40:00,31.5,31.3,30.50,WSW,251,0.0,0.0,99,0.00,,,0.01,Wunderground v.1.15,2013-01-10 10:40:00,
2013-01-10 05:50:00,31.3,31.1,30.50,WSW,251,0.0,0.0,99,0.00,,,0.01,Wunderground v.1.15,2013-01-10 10:50:00,
2013-01-10 06:00:00,31.2,31.0,30.51,WSW,251,0.0,0.0,99,0.00,,,0.01,Wunderground v.1.15,2013-01-10 11:00:00,
2013-01-10 06:05:00,31.0,30.8,30.51,WSW,251,0.0,0.0,99,0.00,,,0.01,Wunderground v.1.15,2013-01-10 11:05:00,
2013-01-10 06:15:00,30.7,30.5,30.51,WSW,251,0.0,0.0,99,0.00,,,0.01,Wunderground v.1.15,2013-01-10 11:15:00,
2013-01-10 06:25:00,30.7,30.5,30.51,WSW,251,0.0,0.0,99,0.00,,,0.01,Wunderground v.1.15,2013-01-10 11:25:00,
2013-01-10 06:30:00,30.7,30.5,30.51,WSW,251,0.0,0.0,99,0.00,,,0.01,Wunderground v.1.15,2013-01-10 11:30:00,
2013-01-10 06:40:00,30.9,30.7,30.51,WSW,251,0.0,0.0,99,0.00,,,0.01,Wunderground v.1.15,2013-01-10 11:40:00,
2013-01-10 06:50:00,30.9,30.7,30.52,WSW,251,0.0,0.0,99,0.00,,,0.01,Wunderground v.1.15,2013-01-10 11:50:00,
2013-01-10 07:00:00,30.9,30.7,30.52,WSW,251,0.0,0.0,99,0.00,,,0.01,Wunderground v.1.15,2013-01-10 12:00:00,
2013-01-10 07:10:00,30.9,30.7,30.52,WSW,251,0.0,0.0,99,0.00,,,0.01,Wunderground v.1.15,2013-01-10 12:10:00,
2013-01-10 07:15:00,30.9,30.7,30.53,WSW,251,0.0,0.0,99,0.00,,,0.01,Wunderground v.1.15,2013-01-10 12:15:00,
2013-01-10 07:25:00,31.0,30.8,30.53,WSW,251,0.0,0.0,99,0.00,,,0.01,Wunderground v.1.15,2013-01-10 12:25:00,
2013-01-10 07:30:00,31.0,30.8,30.53,WSW,251,0.0,0.0,99,0.00,,,0.01,Wunderground v.1.15,2013-01-10 12:30:00,
2013-01-10 07:40:00,31.0,30.8,30.53,WSW,251,0.0,0.0,99,0.00,,,0.01,Wunderground v.1.15,2013-01-10 12:40:00,
2013-01-10 07:50:00,31.2,31.0,30.52,WSW,251,0.0,0.0,99,0.00,,,0.01,Wunderground v.1.15,2013-01-10 12:50:00,
2013-01-10 08:00:00,31.2,31.0,30.53,WSW,251,0.0,0.0,99,0.00,,,0.01,Wunderground v.1.15,2013-01-10 13:00:00,
2013-01-10 08:05:00,31.3,31.1,30.53,WSW,253,0.0,0.0,99,0.00,,,0.01,Wunderground v.1.15,2013-01-10 13:05:00,
2013-01-10 08:10:00,31.3,31.1,30.53,WSW,253,0.0,0.0,99,0.00,,,0.01,Wunderground v.1.15,2013-01-10 13:10:00,
2013-01-10 08:20:00,31.5,31.3,30.53,WSW,253,0.0,0.0,99,0.00,,,0.01,Wunderground v.1.15,2013-01-10 13:20:00,
2013-01-10 08:30:00,31.6,31.4,30.53,WSW,253,0.0,0.0,99,0.00,,,0.01,Wunderground v.1.15,2013-01-10 13:30:00,
2013-01-10 08:40:00,31.8,31.6,30.53,WSW,253,0.0,0.0,99,0.00,,,0.01,Wunderground v.1.15,2013-01-10 13:40:00,
2013-01-10 08:45:00,31.8,31.6,30.53,WSW,253,0.0,0.0,99,0.00,,,0.01,Wunderground v.1.15,2013-01-10 13:45:00,
2013-01-10 08:55:00,31.9,31.7,30.53,WSW,253,0.0,0.0,99,0.00,,,0.01,Wunderground v.1.15,2013-01-10 13:55:00,
2013-01-10 09:00:00,31.9,31.7,30.53,WSW,253,0.0,0.0,99,0.00,,,0.01,Wunderground v.1.15,2013-01-10 14:00:00,
2013-01-10 09:10:00,32.1,31.9,30.53,WSW,253,0.0,0.0,99,0.00,,,0.01,Wunderground v.1.15,2013-01-10 14:10:00,
2013-01-10 09:20:00,32.2,32.0,30.53,WSW,253,0.0,0.0,99,0.00,,,0.01,Wunderground v.1.15,2013-01-10 14:20:00,
2013-01-10 09:25:00,32.4,32.2,30.53,WSW,253,0.0,0.0,99,0.00,,,0.01,Wunderground v.1.15,2013-01-10 14:25:00,
2013-01-10 09:35:00,32.9,32.9,30.52,WSW,253,0.0,0.0,100,0.00,,,0.01,Wunderground v.1.15,2013-01-10 14:35:00,
2013-01-10 09:40:00,33.1,33.1,30.52,WSW,253,0.0,0.0,100,0.00,,,0.01,Wunderground v.1.15,2013-01-10 14:40:00,
2013-01-10 09:50:00,33.4,33.4,30.52,WSW,253,0.0,1.0,100,0.00,,,0.01,Wunderground v.1.15,2013-01-10 14:50:00,
2013-01-10 10:00:00,33.7,33.7,30.52,WSW,253,0.0,0.0,100,0.00,,,0.01,Wunderground v.1.15,2013-01-10 15:00:00,
2013-01-10 10:10:00,34.1,34.1,30.52,WSW,253,0.0,0.0,100,0.00,,,0.01,Wunderground v.1.15,2013-01-10 15:10:00,
2013-01-10 10:20:00,34.6,34.6,30.51,WSW,253,0.0,0.0,100,0.00,,,0.01,Wunderground v.1.15,2013-01-10 15:20:00,
2013-01-10 10:25:00,34.9,34.9,30.51,WSW,253,0.0,0.0,100,0.00,,,0.01,Wunderground v.1.15,2013-01-10 15:25:00,
2013-01-10 10:30:00,35.0,35.0,30.51,WSW,247,0.0,1.0,100,0.00,,,0.01,Wunderground v.1.15,2013-01-10 15:30:00,
2013-01-10 10:40:00,35.3,35.3,30.51,WSW,247,0.0,0.0,100,0.00,,,0.01,Wunderground v.1.15,2013-01-10 15:40:00,
2013-01-10 10:50:00,35.6,35.6,30.50,WSW,247,0.0,0.0,100,0.00,,,0.01,Wunderground v.1.15,2013-01-10 15:50:00,
2013-01-10 10:55:00,35.8,35.8,30.50,WSW,247,0.0,0.0,100,0.00,,,0.01,Wunderground v.1.15,2013-01-10 15:55:00,
2013-01-10 11:05:00,36.3,36.3,30.49,WSW,247,0.0,1.0,100,0.00,,,0.01,Wunderground v.1.15,2013-01-10 16:05:00,
2013-01-10 11:15:00,37.3,37.3,30.49,WSW,247,0.0,0.0,100,0.00,,,0.01,Wunderground v.1.15,2013-01-10 16:15:00,
2013-01-10 11:20:00,37.9,37.9,30.49,WSW,247,0.0,0.0,100,0.00,,,0.01,Wunderground v.1.15,2013-01-10 16:20:00,
2013-01-10 11:30:00,38.6,38.6,30.49,WSW,250,0.0,0.0,100,0.00,,,0.01,Wunderground v.1.15,2013-01-10 16:30:00,
2013-01-10 11:40:00,39.1,39.1,30.49,WSW,250,0.0,0.0,100,0.00,,,0.01,Wunderground v.1.15,2013-01-10 16:40:00,
2013-01-10 11:45:00,39.2,39.2,30.48,WSW,248,0.0,0.0,100,0.00,,,0.01,Wunderground v.1.15,2013-01-10 16:45:00,
2013-01-10 11:55:00,39.8,39.8,30.48,NNE,27,1.0,1.0,100,0.00,,,0.01,Wunderground v.1.15,2013-01-10 16:55:00,
2013-01-10 12:00:00,39.6,39.6,30.46,NNE,25,2.0,6.0,100,0.00,,,0.01,Wunderground v.1.15,2013-01-10 17:00:00,
2013-01-10 12:10:00,39.9,39.9,30.46,NNE,28,2.0,2.0,100,0.00,,,0.01,Wunderground v.1.15,2013-01-10 17:10:00,
2013-01-10 12:20:00,40.3,40.3,30.44,NNE,28,1.0,1.0,100,0.00,,,0.01,Wunderground v.1.15,2013-01-10 17:20:00,
2013-01-10 12:25:00,40.5,40.5,30.44,NNE,28,1.0,1.0,100,0.00,,,0.01,Wunderground v.1.15,2013-01-10 17:25:00,
2013-01-10 12:35:00,41.1,41.1,30.44,NE,38,1.0,3.0,100,0.00,,,0.01,Wunderground v.1.15,2013-01-10 17:35:00,
2013-01-10 12:40:00,41.2,41.2,30.44,NE,37,1.0,2.0,100,0.00,,,0.01,Wunderground v.1.15,2013-01-10 17:40:00,
2013-01-10 12:50:00,41.6,41.6,30.43,NE,38,1.0,1.0,100,0.00,,,0.01,Wunderground v.1.15,2013-01-10 17:50:00,
2013-01-10 13:00:00,42.2,41.9,30.42,NE,38,0.0,0.0,99,0.00,,,0.01,Wunderground v.1.15,2013-01-10 18:00:00,
2013-01-10 13:10:00,42.2,41.9,30.42,NE,47,1.0,1.0,99,0.00,,,0.01,Wunderground v.1.15,2013-01-10 18:10:00,
2013-01-10 13:20:00,42.2,41.9,30.42,NE,47,1.0,1.0,99,0.00,,,0.01,Wunderground v.1.15,2013-01-10 18:20:00,
2013-01-10 13:25:00,42.3,42.0,30.42,NE,47,0.0,1.0,99,0.00,,,0.01,Wunderground v.1.15,2013-01-10 18:25:00,
2013-01-10 13:30:00,42.3,42.0,30.41,NE,47,1.0,1.0,99,0.00,,,0.01,Wunderground v.1.15,2013-01-10 18:30:00,
2013-01-10 13:40:00,42.9,42.4,30.41,NE,47,1.0,1.0,98,0.00,,,0.01,Wunderground v.1.15,2013-01-10 18:40:00,
2013-01-10 13:50:00,43.2,42.4,30.41,NE,48,0.0,1.0,97,0.00,,,0.01,Wunderground v.1.15,2013-01-10 18:50:00,
2013-01-10 14:00:00,43.5,42.4,30.39,NNE,31,1.0,1.0,96,0.00,,,0.01,Wunderground v.1.15,2013-01-10 19:00:00,
2013-01-10 14:10:00,44.1,42.8,30.39,ESE,110,1.0,1.0,95,0.00,,,0.01,Wunderground v.1.15,2013-01-10 19:10:00,
2013-01-10 14:20:00,44.2,42.3,30.37,ESE,102,2.0,2.0,93,0.00,,,0.02,Wunderground v.1.15,2013-01-10 19:20:00,
2013-01-10 14:25:00,44.5,42.0,30.37,East,95,2.0,5.0,91,0.00,,,0.02,Wunderground v.1.15,2013-01-10 19:25:00,
2013-01-10 14:30:00,44.6,42.1,30.36,East,95,1.0,1.0,91,0.00,,,0.02,Wunderground v.1.15,2013-01-10 19:30:00,
2013-01-10 14:40:00,44.9,41.6,30.36,East,92,1.0,1.0,88,0.00,,,0.02,Wunderground v.1.15,2013-01-10 19:40:00,
2013-01-10 14:50:00,45.2,41.3,30.36,East,92,1.0,2.0,86,0.00,,,0.02,Wunderground v.1.15,2013-01-10 19:50:00,
2013-01-10 15:00:00,45.5,40.9,30.36,East,93,1.0,1.0,84,0.00,,,0.02,Wunderground v.1.15,2013-01-10 20:00:00,
2013-01-10 15:10:00,45.7,40.8,30.36,East,92,0.0,0.0,83,0.00,,,0.02,Wunderground v.1.15,2013-01-10 20:10:00,
2013-01-10 15:20:00,46.0,40.5,30.36,East,90,1.0,1.0,81,0.00,,,0.02,Wunderground v.1.15,2013-01-10 20:20:00,
2013-01-10 15:25:00,46.1,40.3,30.36,East,90,1.0,2.0,80,0.00,,,0.02,Wunderground v.1.15,2013-01-10 20:25:00,
2013-01-10 15:30:00,46.1,40.3,30.36,East,90,1.0,2.0,80,0.00,,,0.02,Wunderground v.1.15,2013-01-10 20:30:00,
2013-01-10 15:40:00,46.2,40.0,30.36,NE,55,2.0,2.0,79,0.00,,,0.02,Wunderground v.1.15,2013-01-10 20:40:00,
2013-01-10 15:45:00,46.2,40.0,30.36,NE,52,2.0,2.0,79,0.00,,,0.02,Wunderground v.1.15,2013-01-10 20:45:00,
2013-01-10 15:55:00,46.4,39.9,30.36,NE,52,1.0,2.0,78,0.00,,,0.02,Wunderground v.1.15,2013-01-10 20:55:00,
2013-01-10 16:00:00,46.5,40.0,30.36,NE,52,1.0,1.0,78,0.00,,,0.02,Wunderground v.1.15,2013-01-10 21:00:00,
2013-01-10 16:10:00,46.5,40.0,30.36,NE,52,0.0,1.0,78,0.00,,,0.02,Wunderground v.1.15,2013-01-10 21:10:00,
2013-01-10 16:20:00,46.7,40.2,30.35,NE,52,0.0,1.0,78,0.00,,,0.02,Wunderground v.1.15,2013-01-10 21:20:00,
2013-01-10 16:30:00,46.7,40.2,30.34,NE,52,0.0,1.0,78,0.00,,,0.02,Wunderground v.1.15,2013-01-10 21:30:00,
2013-01-10 16:40:00,46.7,40.5,30.34,NE,52,1.0,1.0,79,0.00,,,0.02,Wunderground v.1.15,2013-01-10 21:40:00,
2013-01-10 16:50:00,46.7,40.5,30.33,NE,52,0.0,0.0,79,0.00,,,0.02,Wunderground v.1.15,2013-01-10 21:50:00,
2013-01-10 17:00:00,46.5,40.3,30.33,NE,52,0.0,0.0,79,0.00,,,0.02,Wunderground v.1.15,2013-01-10 22:00:00,
2013-01-10 17:05:00,46.5,40.3,30.33,NE,52,1.0,1.0,79,0.00,,,0.02,Wunderground v.1.15,2013-01-10 22:05:00,
2013-01-10 17:15:00,46.5,40.3,30.33,NE,52,0.0,1.0,79,0.00,,,0.02,Wunderground v.1.15,2013-01-10 22:15:00,
2013-01-10 17:20:00,46.5,40.0,30.33,NE,52,0.0,0.0,78,0.00,,,0.02,Wunderground v.1.15,2013-01-10 22:20:00,
2013-01-10 17:30:00,46.5,40.0,30.33,NE,52,0.0,0.0,78,0.00,,,0.02,Wunderground v.1.15,2013-01-10 22:30:00,
2013-01-10 17:40:00,46.5,40.0,30.33,NE,52,0.0,0.0,78,0.00,,,0.02,Wunderground v.1.15,2013-01-10 22:40:00,
2013-01-10 17:50:00,46.5,40.3,30.32,NE,52,0.0,0.0,79,0.00,,,0.02,Wunderground v.1.15,2013-01-10 22:50:00,
2013-01-10 17:55:00,46.5,40.3,30.32,NE,52,0.0,0.0,79,0.00,,,0.02,Wunderground v.1.15,2013-01-10 22:55:00,
2013-01-10 18:05:00,46.5,40.3,30.31,NE,52,0.0,0.0,79,0.00,,,0.02,Wunderground v.1.15,2013-01-10 23:05:00,
2013-01-10 18:10:00,46.5,40.0,30.31,NE,52,0.0,0.0,78,0.00,,,0.02,Wunderground v.1.15,2013-01-10 23:10:00,
2013-01-10 18:20:00,46.5,40.3,30.31,NE,52,0.0,0.0,79,0.00,,,0.02,Wunderground v.1.15,2013-01-10 23:20:00,
2013-01-10 18:30:00,46.2,40.0,30.30,NE,52,0.0,0.0,79,0.00,,,0.02,Wunderground v.1.15,2013-01-10 23:30:00,
2013-01-10 18:40:00,46.1,39.9,30.30,NE,52,0.0,0.0,79,0.00,,,0.02,Wunderground v.1.15,2013-01-10 23:40:00,
2013-01-10 18:50:00,45.7,39.9,30.30,NE,52,0.0,0.0,80,0.00,,,0.02,Wunderground v.1.15,2013-01-10 23:50:00,
2013-01-10 18:55:00,45.5,39.7,30.30,NE,52,0.0,0.0,80,0.00,,,0.02,Wunderground v.1.15,2013-01-10 23:55:00,
2013-01-10 19:05:00,45.4,39.9,30.29,NE,52,0.0,0.0,81,0.00,,,0.02,Wunderground v.1.15,2013-01-11 00:05:00,
2013-01-10 19:15:00,45.4,39.9,30.30,NE,52,0.0,0.0,81,0.00,,,0.02,Wunderground v.1.15,2013-01-11 00:15:00,
2013-01-10 19:20:00,45.4,39.9,30.30,NE,52,0.0,0.0,81,0.00,,,0.02,Wunderground v.1.15,2013-01-11 00:20:00,
2013-01-10 19:30:00,45.2,39.7,30.28,NE,52,0.0,0.0,81,0.00,,,0.02,Wunderground v.1.15,2013-01-11 00:30:00,
2013-01-10 19:40:00,44.9,39.7,30.28,NE,52,0.0,0.0,82,0.00,,,0.02,Wunderground v.1.15,2013-01-11 00:40:00,
2013-01-10 19:45:00,44.9,39.7,30.28,NE,52,0.0,0.0,82,0.00,,,0.02,Wunderground v.1.15,2013-01-11 00:45:00,
2013-01-10 19:55:00,44.6,39.4,30.28,NE,52,0.0,0.0,82,0.00,,,0.02,Wunderground v.1.15,2013-01-11 00:55:00,
2013-01-10 20:05:00,44.3,39.5,30.27,NE,52,0.0,0.0,83,0.00,,,0.02,Wunderground v.1.15,2013-01-11 01:05:00,
2013-01-10 20:10:00,44.1,39.3,30.27,NE,52,0.0,0.0,83,0.00,,,0.02,Wunderground v.1.15,2013-01-11 01:10:00,
2013-01-10 20:20:00,43.9,39.4,30.26,NE,52,0.0,0.0,84,0.00,,,0.02,Wunderground v.1.15,2013-01-11 01:20:00,
2013-01-10 20:25:00,43.9,39.4,30.26,NE,52,0.0,0.0,84,0.00,,,0.02,Wunderground v.1.15,2013-01-11 01:25:00,
2013-01-10 20:35:00,43.6,39.1,30.25,NE,52,0.0,0.0,84,0.00,,,0.02,Wunderground v.1.15,2013-01-11 01:35:00,
2013-01-10 20:40:00,43.5,39.0,30.25,NE,52,0.0,0.0,84,0.00,,,0.02,Wunderground v.1.15,2013-01-11 01:40:00,
2013-01-10 20:50:00,43.3,39.1,30.25,NE,52,0.0,0.0,85,0.00,,,0.02,Wunderground v.1.15,2013-01-11 01:50:00,
2013-01-10 21:00:00,43.5,39.6,30.24,NE,52,0.0,0.0,86,0.00,,,0.02,Wunderground v.1.15,2013-01-11 02:00:00,
2013-01-10 21:10:00,43.3,39.4,30.24,NE,52,0.0,0.0,86,0.00,,,0.02,Wunderground v.1.15,2013-01-11 02:10:00,
2013-01-10 21:20:00,42.9,39.0,30.23,NE,52,0.0,0.0,86,0.00,,,0.02,Wunderground v.1.15,2013-01-11 02:20:00,
2013-01-10 21:25:00,42.6,39.0,30.23,NE,52,0.0,0.0,87,0.00,,,0.02,Wunderground v.1.15,2013-01-11 02:25:00,
2013-01-10 21:35:00,42.3,38.7,30.22,NE,52,0.0,0.0,87,0.00,,,0.02,Wunderground v.1.15,2013-01-11 02:35:00,
2013-01-10 21:45:00,42.2,38.9,30.22,NE,52,0.0,0.0,88,0.00,,,0.02,Wunderground v.1.15,2013-01-11 02:45:00,
2013-01-10 21:50:00,41.9,38.6,30.22,NE,52,0.0,0.0,88,0.00,,,0.02,Wunderground v.1.15,2013-01-11 02:50:00,
2013-01-10 22:00:00,41.5,38.2,30.21,NE,52,0.0,0.0,88,0.00,,,0.02,Wunderground v.1.15,2013-01-11 03:00:00,
2013-01-10 22:10:00,41.3,38.3,30.21,NE,52,0.0,0.0,89,0.00,,,0.02,Wunderground v.1.15,2013-01-11 03:10:00,
2013-01-10 22:20:00,40.9,38.2,30.20,NE,52,0.0,0.0,90,0.00,,,0.02,Wunderground v.1.15,2013-01-11 03:20:00,
2013-01-10 22:25:00,40.9,38.2,30.20,NE,52,0.0,0.0,90,0.00,,,0.02,Wunderground v.1.15,2013-01-11 03:25:00,
2013-01-10 22:35:00,40.8,38.4,30.19,NE,52,0.0,0.0,91,0.00,,,0.02,Wunderground v.1.15,2013-01-11 03:35:00,
2013-01-10 22:45:00,40.5,38.1,30.19,NE,52,0.0,0.0,91,0.00,,,0.02,Wunderground v.1.15,2013-01-11 03:45:00,
2013-01-10 22:50:00,40.6,38.5,30.19,NE,52,0.0,0.0,92,0.00,,,0.02,Wunderground v.1.15,2013-01-11 03:50:00,
2013-01-10 23:00:00,41.2,39.1,30.17,NE,52,0.0,0.0,92,0.00,,,0.02,Wunderground v.1.15,2013-01-11 04:00:00,
2013-01-10 23:10:00,41.2,39.1,30.17,NE,52,0.0,0.0,92,0.00,,,0.02,Wunderground v.1.15,2013-01-11 04:10:00,
2013-01-10 23:20:00,40.8,38.7,30.16,NE,52,0.0,0.0,92,0.00,,,0.02,Wunderground v.1.15,2013-01-11 04:20:00,
2013-01-10 23:30:00,40.6,38.5,30.16,NE,52,0.0,0.0,92,0.00,,,0.02,Wunderground v.1.15,2013-01-11 04:30:00,
2013-01-10 23:35:00,40.8,38.9,30.16,NE,52,0.0,0.0,93,0.00,,,0.02,Wunderground v.1.15,2013-01-11 04:35:00,
2013-01-10 23:40:00,41.1,39.2,30.16,NE,52,0.0,0.0,93,0.00,,,0.02,Wunderground v.1.15,2013-01-11 04:40:00,
2013-01-10 23:50:00,41.2,39.1,30.15,NE,52,0.0,0.0,92,0.00,,,0.02,Wunderground v.1.15,2013-01-11 04:50:00,
2013-01-10 23:55:00,41.2,39.1,30.15,NE,52,0.0,0.0,92,0.00,,,0.02,Wunderground v.1.15,2013-01-11 04:55:00,